This demonstration page uses our WeatherBlox Daily Observations layout. Learn more.

40.92945, -100.16068

Hourly Observations for February 20, 2019

Temp ( °F °C ) Dew Point ( °F °C ) Humidity (%) Winds ( mph kmh ) Pressure ( in mb ) Visibility ( mi km ) Precip ( " mm )
12:15 am 00:15 Cloudy with Light Snow 17 -8.5 14 -10.1 88 88 ENE 3 6 30.02 1017 2 3.21868 0 0
12:35 am 00:35 Cloudy with Light Snow 17 -8.5 14 -10.1 88 88 ENE 3 6 30.01 1016 3 4.82802 0 0
12:55 am 00:55 Cloudy with Light Snow 17 -8.5 14 -10.1 88 88 NE 3 6 30 1016 1.75 2.816345 0 0
1:15 am 01:15 Cloudy with Light Snow 17 -8.5 14 -10.2 88 88 Calm 29.99 1016 2.5 4.02335 0 0
1:35 am 01:35 Cloudy with Light Snow 17 -8.5 14 -10.1 88 88 Calm 29.97 1015 1.5 2.41401 0.01 0.254
1:55 am 01:55 Cloudy with Light Snow 17 -8.5 14 -10.1 88 88 Calm 29.96 1015 2 3.21868 0.02 0.508
2:15 am 02:15 Cloudy with Light Snow 17 -8.5 14 -10.1 88 88 Calm 29.96 1015 1.75 2.816345 0.01 0.254
2:35 am 02:35 Cloudy with Light Snow 17 -8.5 14 -10.1 88 88 Calm 29.95 1014 1.75 2.816345 0.02 0.508
2:55 am 02:55 Cloudy with Light Snow 17 -8.5 14 -10.1 88 88 Calm 29.94 1014 1.25 2.011675 0.02 0.508
3:15 am 03:15 Cloudy with Light Snow 17 -8.5 14 -10.1 88 88 Calm 29.92 1013 1.25 2.011675 0 0
3:35 am 03:35 Cloudy with Light Snow 17 -8.6 14 -10.2 88 88 Calm 29.91 1013 1 1.60934 0.01 0.254
3:55 am 03:55 Cloudy with Light Snow 16 -8.7 13 -10.3 88 88 Calm 29.89 1012 1.75 2.816345 0.01 0.254
4:15 am 04:15 Cloudy with Light Snow 16 -8.8 13 -10.5 88 88 Calm 29.9 1012 2.5 4.02335 0 0
4:35 am 04:35 Cloudy with Light Snow 16 -9 13 -10.5 89 89 Calm 29.89 1012 3 4.82802 0 0
4:55 am 04:55 Cloudy with Light Snow 15 -9.2 13 -10.7 89 89 Calm 29.88 1012 3 4.82802 0 0
5:15 am 05:15 Cloudy with Light Snow 15 -9.6 12 -11 90 90 Calm 29.88 1012 3 4.82802 0 0
5:35 am 05:35 Cloudy with Light Snow 14 -10 11 -11.5 89 89 W 3 6 29.88 1012 2.5 4.02335 0 0
5:55 am 05:55 Cloudy with Light Snow 12 -11 9 -12.7 87 87 Calm 29.88 1012 1.5 2.41401 0 0
6:15 am 06:15 Cloudy with Light Snow 10 -12.3 7 -14.1 87 87 Calm 29.88 1012 2 3.21868 0 0
6:35 am 06:35 Cloudy with Light Snow 9 -12.6 6 -14.4 87 87 WSW 3 6 29.89 1012 2 3.21868 0 0
6:55 am 06:55 Cloudy with Light Snow 9 -12.9 5 -14.8 86 86 W 5 7 29.87 1011 2.5 4.02335 0 0
7:15 am 07:15 Cloudy with Mist and Fog 9 -12.6 6 -14.4 87 87 WSW 5 7 29.87 1011 3 4.82802 0 0
7:35 am 07:35 Cloudy with Light Snow 11 -11.6 8 -13.4 87 87 SW 3 6 29.86 1011 3 4.82802 0 0
7:55 am 07:55 Cloudy with Light Snow 12 -10.9 9 -12.6 87 87 SW 3 6 29.86 1011 1.5 2.41401 0 0
8:15 am 08:15 Cloudy with Light Snow 15 -9.5 12 -11.1 88 88 SW 3 6 29.85 1011 2 3.21868 0 0
8:35 am 08:35 Mostly Cloudy 14 -9.9 11 -11.6 88 88 WSW 3 6 29.86 1011 7 11.26538 0 0
8:55 am 08:55 Sunny 14 -10 11 -11.7 88 88 WSW 3 6 29.86 1011 7 11.26538 0 0
9:15 am 09:15 Sunny 14 -10.2 10 -12 87 87 WSW 5 7 29.86 1011 7 11.26538 0 0
9:35 am 09:35 Sunny 14 -9.9 11 -11.6 88 88 WSW 3 6 29.86 1011 10 16.0934 0 0
9:55 am 09:55 Sunny 17 -8.3 14 -9.9 88 88 WSW 9 15 29.85 1011 10 16.0934 0 0
10:15 am 10:15 Sunny 19 -7.5 14 -10 83 83 W 9 15 29.83 1010 10 16.0934 0 0
10:35 am 10:35 Sunny 19 -7.1 13 -10.3 78 78 WSW 9 15 29.83 1010 10 16.0934 0 0
10:55 am 10:55 Sunny 20 -6.8 14 -10.2 77 77 WSW 10 17 29.82 1010 10 16.0934 0 0
11:15 am 11:15 Sunny 21 -6.3 14 -10.1 75 75 W 10 17 29.82 1010 10 16.0934 0 0
11:35 am 11:35 Sunny 21 -6 14 -10.2 73 73 W 7 11 29.82 1010 10 16.0934 0 0
11:55 am 11:55 Sunny 22 -5.4 15 -9.7 72 72 W 9 15 29.81 1009 10 16.0934 0 0
12:15 pm 12:15 Sunny 24 -4.2 15 -9.5 67 67 W 10 17 29.8 1009 10 16.0934 0 0
12:35 pm 12:35 Sunny 25 -4 14 -10 63 63 W 15 24 29.8 1009 7 11.26538 0 0
12:55 pm 12:55 Mostly Cloudy with Scattered Snow Showers 25 -4 14 -10.1 63 63 W 16 26 29.81 1009 1.25 2.011675 0 0
1:15 pm 13:15 Hazy 26 -3.4 15 -9.6 63 63 W 15 24 29.79 1009 5 8.0467 0 0
1:35 pm 13:35 Hazy 27 -3 15 -9.7 60 60 W 20 31 29.79 1009 4 6.43736 0 0
1:55 pm 13:55 Sunny 28 -2.5 14 -9.8 58 58 W 12 19 29.77 1008 7 11.26538 0 0
2:15 pm 14:15 Sunny 29 -1.9 15 -9.7 56 56 W 15 24 29.77 1008 10 16.0934 0 0
2:35 pm 14:35 Hazy 29 -1.7 15 -9.7 55 55 W 20 31 29.78 1009 4 6.43736 0 0
2:55 pm 14:55 Sunny 30 -1.3 15 -9.7 53 53 W 16 26 29.78 1008 7 11.26538 0 0
3:15 pm 15:15 Sunny 30 -1 15 -9.6 52 52 W 22 35 29.79 1009 10 16.0934 0 0
3:35 pm 15:35 Hazy 30 -1.3 15 -9.2 55 55 W 16 26 29.8 1009 2.5 4.02335 0 0
3:55 pm 15:55 Sunny 30 -1.2 16 -8.8 57 57 W 15 24 29.81 1009 10 16.0934 0 0
4:15 pm 16:15 Sunny 29 -1.5 16 -9.1 57 57 WNW 16 26 29.81 1010 10 16.0934 0 0
4:35 pm 16:35 Sunny 30 -1.1 16 -9.1 55 55 W 15 24 29.82 1010 10 16.0934 0 0
4:55 pm 16:55 Sunny 28 -2.1 15 -9.2 59 59 WNW 10 17 29.84 1010 10 16.0934 0 0
5:15 pm 17:15 Sunny 27 -2.6 15 -9.5 59 59 WNW 10 17 29.85 1011 10 16.0934 0 0
5:35 pm 17:35 Sunny 25 -3.9 14 -9.9 63 63 WNW 8 13 29.89 1012 10 16.0934 0 0
6:15 pm 18:15 Sunny 21 -6.1 12 -11 69 69 WNW 7 11 29.93 1013 10 16.0934 0 0
6:35 pm 18:35 Clear 20 -6.7 11 -11.4 70 70 WNW 6 9 29.93 1014 10 16.0934 0 0
6:55 pm 18:55 Clear 17 -8.4 9 -12.7 71 71 W 7 11 29.97 1015 10 16.0934 0 0
7:15 pm 19:15 Clear 15 -9.6 7 -13.7 72 72 WNW 3 6 29.98 1015 10 16.0934 0 0
7:35 pm 19:35 Clear 14 -9.8 10 -12.3 82 82 Calm 30.01 1016 10 16.0934 0 0
7:55 pm 19:55 Clear 16 -8.9 11 -11.7 80 80 S 5 7 30.01 1016 10 16.0934 0 0
8:15 pm 20:15 Clear 15 -9.2 11 -11.7 82 82 SSW 3 6 30.02 1017 10 16.0934 0 0
8:35 pm 20:35 Clear 12 -10.9 9 -12.7 87 87 S 8 13 30.05 1018 10 16.0934 0 0
8:55 pm 20:55 Clear 12 -11.3 7 -14.1 80 80 Calm 30.05 1018 10 16.0934 0 0
9:15 pm 21:15 Clear 13 -10.6 9 -12.7 85 85 Calm 30.05 1017 10 16.0934 0 0
9:35 pm 21:35 Clear 8 -13.5 3 -16.1 81 81 Calm 30.09 1019 10 16.0934 0 0
9:55 pm 21:55 Clear 5 -15.1 2 -16.7 88 88 Calm 30.12 1020 10 16.0934 0 0
10:15 pm 22:15 Clear 2 -16.4 -1 -18.5 84 84 NE 5 7 30.13 1020 10 16.0934 0 0
10:35 pm 22:35 Clear 1 -17.5 -4 -19.9 82 82 Calm 30.15 1021 10 16.0934 0 0
10:55 pm 22:55 Clear 3 -16.2 -1 -18.4 83 83 ESE 3 6 30.15 1021 10 16.0934 0 0
11:15 pm 23:15 Clear 3 -16.2 -1 -18.4 83 83 S 3 6 30.16 1021 10 16.0934 0 0
11:35 pm 23:35 Clear 0 -17.6 -4 -20.2 80 80 Calm 30.17 1022 10 16.0934 0 0
11:55 pm 23:55 Clear 2 -16.7 -2 -19 83 83 Calm 30.17 1022 7 11.26538 0 0

Powered by AerisWeather